Change the Weather History Date:

Wednesday, November 13, 2013

  Actual Average (KFNT) Record (KFNT)
Temperature  
Mean Temperature 28 °F 40 °F  
Max Temperature 39 °F 48 °F 71 °F (1989)
Min Temperature 18 °F 32 °F 12 °F (1986)
Degree Days  
Heating Degree Days 36 25  
Month to date heating degree days 297  
Since 1 July heating degree days 993  
Cooling Degree Days 0 0  
Month to date cooling degree days 0  
Year to date cooling degree days 531  
Moisture  
Dew Point 18 °F    
Average Humidity 63    
Maximum Humidity 91    
Minimum Humidity 37    
Precipitation  
Precipitation 0.00 in 0.09 in 0.85 in (1959)
Month to date precipitation 1.17  
Year to date precipitation 27.95  
Snow  
Snow 0.00 in 0.00 in 1.20 in (1974)
Month to date snowfall 0.4  
Since 1 July snowfall 0.8  
Since 1 September snowfall 0.8  
Snow Depth -    
Sea Level Pressure  
Sea Level Pressure 30.32 in    
Wind  
Wind Speed 10 mph (WSW)    
Max Wind Speed 23 mph    
Max Gust Speed 30 mph    
Visibility 10 miles    
Events      
T = Trace of Precipitation, MM = Missing Value Source: NWS Daily Summary

Daily Weather History Graph

Daily Weather History Graph

Search for Another Location

Airport or City:

Trip Planner

Search our weather history database for the weather conditions in past years. The results will help you decide how hot, cold, wet, or windy it might be!

Date:

Astronomy

Nov. 13, 2013 Rise Set
Actual Time 7:23 AM EST 5:10 PM EST
Civil Twilight 6:52 AM EST 5:41 PM EST
Nautical Twilight 6:18 AM EST 6:15 PM EST
Astronomical Twilight 5:45 AM EST 6:49 PM EST
Moon 3:02 PM EST (11/13) 3:09 AM EST (11/13)
Length of Visible Light 10h 48m
Length of Day
9h 47m
Waxing Gibbous, 84% of the Moon is Illuminated
Nov 13
Waxing Gibbous
Nov 17
Full
Nov 25
Last Quarter
Dec 2
New
Dec 9
First Quarter

Hourly Weather History & Observations

Time (EST) Temp. Windchill Dew Point Humidity Pressure Visibility Wind Dir Wind Speed Gust Speed Precip Events Conditions
12:14 AM 23.2 °F 17.2 °F 16.9 °F 77% 30.51 in 10.0 mi West 4.6 mph - N/A   Mostly Cloudy
12:34 AM 23.5 °F 19.1 °F 17.4 °F 77% 30.50 in 10.0 mi West 3.5 mph - N/A   Mostly Cloudy
12:54 AM 22.8 °F - 18.3 °F 83% 30.50 in 10.0 mi North - - N/A   Scattered Clouds
1:14 AM 22.5 °F - 18.3 °F 84% 30.50 in 10.0 mi North - - N/A   Clear
1:34 AM 21.9 °F - 18.1 °F 85% 30.49 in 10.0 mi North - - N/A   Scattered Clouds
1:54 AM 21.7 °F - 18.1 °F 86% 30.49 in 10.0 mi North - - N/A   Scattered Clouds
2:14 AM 21.2 °F - 18.3 °F 89% 30.49 in 10.0 mi North - - N/A   Clear
2:34 AM 21.0 °F - 18.1 °F 89% 30.49 in 10.0 mi North - - N/A   Clear
2:54 AM 20.7 °F - 17.8 °F 89% 30.49 in 10.0 mi North - - N/A   Clear
3:14 AM 20.7 °F 14.2 °F 17.6 °F 88% 30.48 in 10.0 mi WSW 4.6 mph - N/A   Clear
3:34 AM 20.8 °F 13.2 °F 17.4 °F 87% 30.48 in 10.0 mi WSW 5.8 mph - N/A   Clear
3:54 AM 20.7 °F - 17.6 °F 88% 30.47 in 10.0 mi North - - N/A   Clear
4:14 AM 20.3 °F - 17.4 °F 89% 30.46 in 10.0 mi North - - N/A   Clear
4:34 AM 20.1 °F - 17.2 °F 89% 30.45 in 10.0 mi North - - N/A   Clear
4:54 AM 19.2 °F - 16.5 °F 89% 30.45 in 10.0 mi North - - N/A   Clear
5:14 AM 18.9 °F 10.8 °F 16.5 °F 91% 30.45 in 10.0 mi SW 5.8 mph - N/A   Clear
5:34 AM 19.9 °F 12.1 °F 17.2 °F 89% 30.45 in 10.0 mi SW 5.8 mph - N/A   Clear
5:54 AM 20.3 °F 12.5 °F 17.2 °F 88% 30.44 in 10.0 mi SW 5.8 mph - N/A   Clear
6:13 AM 20.3 °F 12.5 °F 17.1 °F 87% 30.44 in 10.0 mi SW 5.8 mph - N/A   Clear
6:34 AM 20.3 °F 12.5 °F 17.1 °F 87% 30.44 in 10.0 mi SW 5.8 mph - N/A   Clear
6:54 AM 20.7 °F 13.0 °F 17.2 °F 87% 30.44 in 10.0 mi SW 5.8 mph - N/A   Clear
7:13 AM 21.0 °F - 17.6 °F 87% 30.44 in 10.0 mi North - - N/A   Clear
7:34 AM 21.2 °F 14.9 °F 17.8 °F 87% 30.44 in 10.0 mi SW 4.6 mph - N/A   Clear
7:54 AM 21.7 °F 14.3 °F 18.3 °F 87% 30.43 in 10.0 mi SW 5.8 mph - N/A   Clear
8:13 AM 23.2 °F 16.0 °F 19.4 °F 85% 30.43 in 10.0 mi SW 5.8 mph - N/A   Clear
8:34 AM 25.3 °F 17.6 °F 20.8 °F 83% 30.43 in 10.0 mi SW 6.9 mph - N/A   Clear
8:54 AM 26.8 °F 19.3 °F 21.7 °F 81% 30.43 in 10.0 mi WSW 6.9 mph - N/A   Clear
9:13 AM 28.2 °F 21.0 °F 22.6 °F 80% 30.42 in 10.0 mi WSW 6.9 mph - N/A   Clear
9:34 AM 29.3 °F 19.6 °F 23.2 °F 78% 30.41 in 10.0 mi WSW 11.5 mph - N/A   Clear
9:54 AM 30.2 °F 21.9 °F 23.7 °F 77% 30.40 in 10.0 mi WSW 9.2 mph 16.1 mph N/A   Clear
10:14 AM 32.4 °F 23.5 °F 23.9 °F 71% 30.40 in 10.0 mi WSW 11.5 mph - N/A   Clear
10:34 AM 32.9 °F 22.4 °F 23.5 °F 68% 30.39 in 10.0 mi West 16.1 mph 21.9 mph N/A   Clear
10:53 AM 33.4 °F 23.1 °F 23.7 °F 68% 30.38 in 10.0 mi WSW 16.1 mph 23.0 mph N/A   Clear
11:14 AM 34.7 °F 25.1 °F 22.8 °F 62% 30.37 in 10.0 mi West 15.0 mph 24.2 mph N/A   Clear
11:34 AM 34.7 °F 24.7 °F 22.5 °F 61% 30.37 in 10.0 mi WSW 16.1 mph 23.0 mph N/A   Clear
11:54 AM 35.8 °F 25.7 °F 22.5 °F 58% 30.35 in 10.0 mi WSW 17.3 mph 24.2 mph N/A   Clear
12:14 PM 36.9 °F 28.2 °F 22.8 °F 57% 30.34 in 10.0 mi WSW 13.8 mph 19.6 mph N/A   Clear
12:34 PM 37.6 °F 28.8 °F 20.7 °F 51% 30.32 in 10.0 mi WSW 15.0 mph 23.0 mph N/A   Clear
12:54 PM 37.9 °F 28.5 °F 20.1 °F 49% 30.32 in 10.0 mi WSW 17.3 mph 25.3 mph N/A   Clear
1:14 PM 38.3 °F 29.0 °F 19.8 °F 47% 30.30 in 10.0 mi WSW 17.3 mph 24.2 mph N/A   Clear
1:34 PM 38.5 °F 30.3 °F 20.1 °F 48% 30.30 in 10.0 mi WSW 13.8 mph 27.6 mph N/A   Clear
1:54 PM 39.2 °F 30.5 °F 19.4 °F 45% 30.28 in 10.0 mi WSW 16.1 mph 27.6 mph N/A   Clear
2:14 PM 39.7 °F 32.3 °F 19.8 °F 45% 30.28 in 10.0 mi WSW 12.7 mph 20.7 mph N/A   Clear
2:34 PM 39.2 °F 29.6 °F 18.9 °F 44% 30.27 in 10.0 mi WSW 19.6 mph 28.8 mph N/A   Clear
2:54 PM 39.2 °F 29.3 °F 19.2 °F 45% 30.26 in 10.0 mi WSW 20.7 mph 26.5 mph N/A   Clear
3:14 PM 39.2 °F 30.5 °F 18.7 °F 44% 30.26 in 10.0 mi WSW 16.1 mph 24.2 mph N/A   Clear
3:34 PM 39.2 °F 31.2 °F 18.1 °F 43% 30.25 in 10.0 mi SW 13.8 mph 20.7 mph N/A   Clear
3:54 PM 39.2 °F 31.2 °F 18.1 °F 43% 30.24 in 10.0 mi WSW 13.8 mph 21.9 mph N/A   Clear
4:14 PM 37.6 °F 28.8 °F 17.6 °F 44% 30.23 in 10.0 mi WSW 15.0 mph 25.3 mph N/A   Clear
4:34 PM 37.4 °F 28.9 °F 17.4 °F 44% 30.22 in 10.0 mi SW 13.8 mph 21.9 mph N/A   Clear
4:54 PM 36.9 °F 27.1 °F 16.0 °F 43% 30.21 in 10.0 mi SW 17.3 mph 21.9 mph N/A   Clear
5:14 PM 36.5 °F 27.8 °F 14.4 °F 40% 30.20 in 10.0 mi WSW 13.8 mph 20.7 mph N/A   Clear
5:33 PM 35.8 °F 26.5 °F 12.9 °F 39% 30.20 in 10.0 mi SW 15.0 mph 23.0 mph N/A   Clear
5:54 PM 35.2 °F 25.8 °F 12.0 °F 38% 30.19 in 10.0 mi SW 15.0 mph 19.6 mph N/A   Clear
6:14 PM 34.9 °F 24.9 °F 11.5 °F 38% 30.18 in 10.0 mi SW 16.1 mph 23.0 mph N/A   Clear
6:33 PM 34.9 °F 23.0 °F 10.8 °F 37% 30.17 in 10.0 mi SW 23.0 mph 29.9 mph N/A   Clear
6:54 PM 34.9 °F 24.9 °F 10.9 °F 37% 30.17 in 10.0 mi SW 16.1 mph 26.5 mph N/A   Clear
7:14 PM 34.9 °F 25.3 °F 11.5 °F 38% 30.17 in 10.0 mi SW 15.0 mph 27.6 mph N/A   Clear
7:33 PM 34.7 °F 23.1 °F 12.0 °F 39% 30.16 in 10.0 mi SW 21.9 mph 28.8 mph N/A   Clear
7:54 PM 34.5 °F 24.8 °F 12.9 °F 41% 30.15 in 10.0 mi SW 15.0 mph 23.0 mph N/A   Clear
8:14 PM 34.2 °F 23.0 °F 13.1 °F 42% 30.13 in 10.0 mi SW 19.6 mph 26.5 mph N/A   Clear
8:33 PM 34.0 °F 22.7 °F 13.6 °F 43% 30.13 in 10.0 mi SW 19.6 mph 29.9 mph N/A   Clear
8:54 PM 33.4 °F 22.0 °F 14.4 °F 46% 30.12 in 10.0 mi SW 19.6 mph 26.5 mph N/A   Clear
9:14 PM 33.3 °F 22.8 °F 15.6 °F 48% 30.12 in 10.0 mi SW 16.1 mph 25.3 mph N/A   Clear
9:33 PM 33.1 °F 22.6 °F 15.8 °F 49% 30.11 in 10.0 mi SW 16.1 mph 25.3 mph N/A   Clear
9:54 PM 33.1 °F 21.5 °F 15.8 °F 49% 30.10 in 10.0 mi SW 19.6 mph 26.5 mph N/A   Clear
10:14 PM 32.9 °F 22.8 °F 15.6 °F 49% 30.10 in 10.0 mi WSW 15.0 mph 24.2 mph N/A   Clear
10:34 PM 33.1 °F 21.9 °F 15.3 °F 48% 30.08 in 10.0 mi SW 18.4 mph 25.3 mph N/A   Clear
10:54 PM 32.9 °F 23.7 °F 15.6 °F 49% 30.09 in 10.0 mi WSW 12.7 mph 21.9 mph N/A   Clear
11:13 PM 32.9 °F 22.0 °F 15.6 °F 49% 30.09 in 10.0 mi WSW 17.3 mph 25.3 mph N/A   Clear
11:34 PM 32.5 °F 22.3 °F 16.3 °F 51% 30.10 in 10.0 mi WSW 15.0 mph 26.5 mph N/A   Clear
11:53 PM 32.4 °F 23.0 °F 16.7 °F 53% 30.08 in 10.0 mi WSW 12.7 mph 20.7 mph N/A   Clear